| time (UTC) | temp F | wind direction | speed MPH | gust MPH | rain 1hr in | rain 24hr in | rain mn in | humidity % | barometer mb |
| 20260831063556 | 73 | 180 | 3.0 | 7.0 | 0.00 | 0.00 | 0.00 | 90 | 1008.1 |
| 20260831062516 | 73 | 203 | 4.0 | 7.0 | 0.00 | 0.00 | 0.00 | 90 | 1008.2 |
| 20260831061516 | 73 | 203 | 3.0 | 6.0 | 0.00 | 0.00 | 0.00 | 90 | 1008.1 |
| 20260831060516 | 73 | 203 | 3.0 | 5.0 | 0.00 | 0.00 | 0.00 | 90 | 1008.2 |
| 20260831055515 | 73 | 180 | 3.0 | 6.0 | 0.00 | 0.00 | 0.00 | 89 | 1008.3 |
| 20260831054535 | 73 | 180 | 4.0 | 7.0 | 0.00 | 0.00 | 0.00 | 89 | 1008.5 |
| 20260831053515 | 73 | 180 | 3.0 | 5.0 | 0.00 | 0.00 | 0.00 | 89 | 1008.6 |
| 20260831052555 | 73 | 180 | 3.0 | 9.0 | 0.00 | 0.00 | 0.00 | 89 | 1008.7 |
| 20260831051515 | 74 | 180 | 4.0 | 7.0 | 0.00 | 0.00 | 0.00 | 89 | 1008.6 |
| 20260831050556 | 74 | 180 | 4.0 | 7.0 | 0.00 | 0.00 | 0.00 | 88 | 1008.6 |
| 20260831045516 | 74 | 180 | 5.0 | 9.0 | 0.00 | 0.00 | 0.00 | 88 | 1008.6 |
| 20260831044516 | 74 | 0 | 3.0 | 7.0 | 0.00 | 0.00 | 0.00 | 88 | 1008.7 |
| 20260831043556 | 74 | 180 | 5.0 | 7.0 | 0.00 | 0.00 | 0.00 | 88 | 1008.9 |
| 20260831042556 | 74 | 180 | 4.0 | 6.0 | 0.00 | 0.00 | 0.00 | 88 | 1008.8 |
| 20260831041516 | 75 | 180 | 6.0 | 10.0 | 0.00 | 0.00 | 0.00 | 87 | 1008.8 |
| 20260831040516 | 74 | 180 | 5.0 | 9.0 | 0.00 | 0.00 | 0.00 | 88 | 1008.8 |
| 20260831035516 | 74 | 0 | 5.0 | 9.0 | 0.00 | 0.00 | 0.00 | 88 | 1008.6 |
| 20260831034536 | 74 | 0 | 5.0 | 9.0 | 0.00 | 0.00 | 0.00 | 88 | 1008.7 |
| 20260831033516 | 74 | 180 | 5.0 | 10.0 | 0.00 | 0.00 | 0.00 | 88 | 1008.7 |
| 20260831032516 | 74 | 0 | 6.0 | 12.0 | 0.00 | 0.00 | 0.00 | 88 | 1008.4 |
| 20260831031516 | 74 | 0 | 6.0 | 11.0 | 0.00 | 0.00 | 0.00 | 87 | 1008.4 |
| 20260831030536 | 74 | 180 | 5.0 | 10.0 | 0.00 | 0.00 | 0.00 | 87 | 1008.5 |
| 20260831025516 | 75 | 158 | 5.0 | 8.0 | 0.00 | 0.00 | 0.00 | 87 | 1008.5 |
| 20260831024516 | 75 | 180 | 5.0 | 9.0 | 0.00 | 0.00 | 0.00 | 86 | 1008.5 |
| 20260831023516 | 75 | 158 | 5.0 | 7.0 | 0.00 | 0.00 | 0.00 | 85 | 1008.3 |
| 20260831022516 | 76 | 158 | 5.0 | 10.0 | 0.00 | 0.00 | 0.00 | 85 | 1008.3 |
| 20260831021516 | 76 | 158 | 6.0 | 10.0 | 0.00 | 0.00 | 0.00 | 84 | 1008.5 |
| 20260831020516 | 76 | 158 | 6.0 | 12.0 | 0.00 | 0.00 | 0.00 | 84 | 1008.5 |
| 20260831015516 | 76 | 158 | 5.0 | 8.0 | 0.00 | 0.00 | 0.00 | 83 | 1008.3 |
| 20260831014516 | 77 | 158 | 4.0 | 7.0 | 0.00 | 0.00 | 0.00 | 83 | 1008.2 |
| 20260831013516 | 77 | 158 | 6.0 | 9.0 | 0.00 | 0.00 | 0.00 | 83 | 1008.2 |
| 20260831012516 | 77 | 158 | 4.0 | 7.0 | 0.00 | 0.00 | 0.00 | 83 | 1008.2 |
| 20260831011516 | 77 | 158 | 4.0 | 7.0 | 0.00 | 0.00 | 0.00 | 83 | 1008.2 |
| 20260831010516 | 78 | 180 | 4.0 | 6.0 | 0.00 | 0.00 | 0.00 | 83 | 1008.0 |
| 20260831005516 | 78 | 158 | 4.0 | 6.0 | 0.00 | 0.00 | 0.00 | 82 | 1007.9 |
| 20260831004516 | 79 | 158 | 3.0 | 6.0 | 0.00 | 0.00 | 0.00 | 81 | 1007.7 |
| 20260831003556 | 79 | 158 | 5.0 | 7.0 | 0.00 | 0.00 | 0.00 | 80 | 1007.8 |
| 20260831002516 | 80 | 158 | 5.0 | 9.0 | 0.00 | 0.00 | 0.00 | 79 | 1007.3 |
| 20260831001516 | 80 | 158 | 3.0 | 6.0 | 0.00 | 0.00 | 0.00 | 78 | 1007.8 |
| 20260831000516 | 81 | 0 | 4.0 | 7.0 | 0.00 | 0.00 | 0.00 | 77 | 1008.0 |
| 20260830235516 | 81 | 0 | 5.0 | 9.0 | 0.00 | 0.00 | 0.00 | 76 | 1007.7 |
| 20260830234516 | 82 | 180 | 3.0 | 6.0 | 0.00 | 0.00 | 0.00 | 75 | 1007.7 |
| 20260830233515 | 83 | 180 | 5.0 | 10.0 | 0.00 | 0.00 | 0.00 | 73 | 1007.7 |
| 20260830232515 | 83 | 180 | 5.0 | 8.0 | 0.00 | 0.00 | 0.00 | 73 | 1007.5 |
| 20260830231516 | 84 | 180 | 5.0 | 12.0 | 0.00 | 0.00 | 0.00 | 71 | 1007.5 |
| 20260830230515 | 84 | 158 | 4.0 | 8.0 | 0.00 | 0.00 | 0.00 | 73 | 1007.6 |
| 20260830225516 | 83 | 158 | 4.0 | 6.0 | 0.00 | 0.00 | 0.00 | 73 | 1007.6 |
| 20260830224515 | 83 | 180 | 4.0 | 7.0 | 0.00 | 0.00 | 0.00 | 72 | 1007.6 |
| 20260830223515 | 84 | 180 | 5.0 | 11.0 | 0.00 | 0.00 | 0.00 | 70 | 1007.5 |
| 20260830222516 | 84 | 180 | 6.0 | 10.0 | 0.00 | 0.00 | 0.00 | 69 | 1007.5 |
| 20260830221535 | 86 | 158 | 6.0 | 10.0 | 0.00 | 0.00 | 0.00 | 70 | 1007.5 |
| 20260830220515 | 86 | 158 | 7.0 | 12.0 | 0.00 | 0.00 | 0.00 | 69 | 1007.3 |
| 20260830215515 | 87 | 158 | 7.0 | 14.0 | 0.00 | 0.00 | 0.00 | 69 | 1007.6 |
| 20260830214515 | 88 | 158 | 5.0 | 10.0 | 0.00 | 0.00 | 0.00 | 68 | 1007.5 |
| 20260830213535 | 88 | 180 | 6.0 | 10.0 | 0.00 | 0.00 | 0.00 | 68 | 1007.6 |
| 20260830212515 | 88 | 158 | 6.0 | 9.0 | 0.00 | 0.00 | 0.00 | 68 | 1007.5 |
| 20260830211515 | 88 | 180 | 6.0 | 9.0 | 0.00 | 0.00 | 0.00 | 68 | 1007.5 |
| 20260830210555 | 88 | 158 | 6.0 | 10.0 | 0.00 | 0.00 | 0.00 | 68 | 1007.5 |
| 20260830205535 | 88 | 113 | 4.0 | 7.0 | 0.00 | 0.00 | 0.00 | 72 | 1007.6 |
| 20260830204535 | 87 | 113 | 5.0 | 11.0 | 0.00 | 0.00 | 0.00 | 72 | 1007.6 |
| 20260830203515 | 87 | 113 | 6.0 | 10.0 | 0.00 | 0.00 | 0.00 | 71 | 1007.6 |
| 20260830202515 | 87 | 135 | 5.0 | 8.0 | 0.00 | 0.00 | 0.00 | 72 | 1007.7 |
| 20260830201515 | 87 | 113 | 5.0 | 10.0 | 0.00 | 0.00 | 0.00 | 71 | 1007.8 |
| 20260830200515 | 87 | 113 | 6.0 | 11.0 | 0.00 | 0.00 | 0.00 | 70 | 1007.9 |
| 20260830195515 | 86 | 158 | 5.0 | 10.0 | 0.00 | 0.00 | 0.00 | 71 | 1008.0 |
| 20260830194515 | 86 | 135 | 5.0 | 8.0 | 0.00 | 0.00 | 0.00 | 75 | 1008.2 |
| 20260830193515 | 86 | 135 | 7.0 | 10.0 | 0.00 | 0.00 | 0.00 | 73 | 1008.3 |
| 20260830192517 | 85 | 135 | 8.0 | 14.0 | 0.00 | 0.00 | 0.00 | 74 | 1008.1 |
| 20260830191537 | 85 | 113 | 7.0 | 11.0 | 0.00 | 0.00 | 0.00 | 76 | 1008.1 |
| 20260830190517 | 85 | 113 | 6.0 | 11.0 | 0.00 | 0.00 | 0.00 | 77 | 1008.1 |
| 20260830185557 | 85 | 113 | 5.0 | 9.0 | 0.00 | 0.00 | 0.00 | 75 | 1008.2 |
| 20260830184517 | 85 | 113 | 4.0 | 7.0 | 0.00 | 0.00 | 0.00 | 78 | 1008.1 |
| 20260830183517 | 84 | 90 | 6.0 | 9.0 | 0.00 | 0.00 | 0.00 | 77 | 1008.0 |
| 20260830182517 | 84 | 90 | 5.0 | 10.0 | 0.00 | 0.00 | 0.00 | 78 | 1008.0 |
| 20260830181517 | 84 | 113 | 5.0 | 9.0 | 0.00 | 0.00 | 0.00 | 76 | 1008.4 |
| 20260830180517 | 83 | 90 | 4.0 | 9.0 | 0.00 | 0.00 | 0.00 | 77 | 1008.3 |
| 20260830175517 | 83 | 113 | 6.0 | 10.0 | 0.00 | 0.00 | 0.00 | 77 | 1008.8 |
| 20260830174517 | 82 | 135 | 5.0 | 9.0 | 0.00 | 0.00 | 0.00 | 78 | 1009.1 |
| 20260830173517 | 82 | 113 | 6.0 | 10.0 | 0.00 | 0.00 | 0.00 | 79 | 1008.7 |
| 20260830172537 | 82 | 113 | 6.0 | 10.0 | 0.00 | 0.00 | 0.00 | 78 | 1008.8 |
| 20260830171537 | 80 | 113 | 6.0 | 9.0 | 0.00 | 0.00 | 0.00 | 80 | 1008.9 |
| 20260830170517 | 81 | 135 | 6.0 | 10.0 | 0.00 | 0.00 | 0.00 | 78 | 1009.1 |
| 20260830165517 | 80 | 135 | 6.0 | 10.0 | 0.00 | 0.00 | 0.00 | 82 | 1009.1 |
| 20260830164517 | 78 | 113 | 5.0 | 9.0 | 0.00 | 0.00 | 0.00 | 82 | 1009.1 |
| 20260830163517 | 78 | 113 | 4.0 | 6.0 | 0.00 | 0.00 | 0.00 | 83 | 1009.3 |
| 20260830162517 | 78 | 113 | 3.0 | 5.0 | 0.00 | 0.00 | 0.00 | 83 | 1009.1 |
| 20260830161517 | 77 | 90 | 3.0 | 8.0 | 0.00 | 0.00 | 0.00 | 84 | 1009.2 |
| 20260830160517 | 77 | 135 | 4.0 | 7.0 | 0.00 | 0.00 | 0.00 | 84 | 1009.2 |
| 20260830155517 | 77 | 135 | 3.0 | 6.0 | 0.00 | 0.00 | 0.00 | 84 | 1009.1 |
| 20260830154517 | 77 | 113 | 3.0 | 6.0 | 0.00 | 0.00 | 0.00 | 84 | 1009.2 |
| 20260830153517 | 76 | 113 | 5.0 | 8.0 | 0.00 | 0.00 | 0.00 | 85 | 1008.7 |
| 20260830152517 | 75 | 113 | 4.0 | 7.0 | 0.00 | 0.00 | 0.00 | 86 | 1008.7 |
| 20260830151517 | 75 | 113 | 4.0 | 9.0 | 0.00 | 0.00 | 0.00 | 86 | 1008.5 |
| 20260830150517 | 74 | 113 | 4.0 | 7.0 | 0.00 | 0.00 | 0.00 | 86 | 1008.6 |
| 20260830145517 | 74 | 113 | 4.0 | 8.0 | 0.00 | 0.00 | 0.00 | 86 | 1008.5 |
| 20260830144517 | 74 | 90 | 5.0 | 9.0 | 0.00 | 0.00 | 0.00 | 86 | 1008.4 |
| 20260830143517 | 74 | 90 | 6.0 | 10.0 | 0.00 | 0.00 | 0.00 | 87 | 1008.6 |
| 20260830142537 | 73 | 90 | 5.0 | 9.0 | 0.00 | 0.00 | 0.00 | 88 | 1008.8 |
| 20260830141516 | 72 | 90 | 4.0 | 6.0 | 0.00 | 0.00 | 0.00 | 90 | 1008.8 |
| 20260830140516 | 71 | 90 | 4.0 | 6.0 | 0.00 | 0.00 | 0.00 | 92 | 1008.7 |
| 20260830135517 | 70 | 90 | 3.0 | 6.0 | 0.00 | 0.00 | 0.00 | 92 | 1008.6 |
| 20260830134516 | 70 | 90 | 3.0 | 5.0 | 0.00 | 0.00 | 0.00 | 92 | 1008.6 |
| 20260830133516 | 69 | 90 | 3.0 | 6.0 | 0.00 | 0.00 | 0.00 | 93 | 1008.5 |
| 20260830132516 | 69 | 68 | 2.0 | 5.0 | 0.00 | 0.01 | 0.00 | 93 | 1008.8 |
| 20260830131516 | 69 | 45 | 2.0 | 4.0 | 0.00 | 0.01 | 0.00 | 93 | 1008.8 |
| 20260830130536 | 69 | 68 | 1.0 | 3.0 | 0.00 | 0.01 | 0.00 | 93 | 1008.9 |
| 20260830125516 | 68 | 0 | 2.0 | 3.0 | 0.00 | 0.01 | 0.00 | 93 | 1008.9 |
| 20260830124517 | 68 | 0 | 1.0 | 2.0 | 0.00 | 0.01 | 0.00 | 93 | 1008.8 |
| 20260830123516 | 68 | 90 | 1.0 | 1.0 | 0.00 | 0.01 | 0.00 | 93 | 1008.7 |
| 20260830122517 | 67 | 90 | 2.0 | 4.0 | 0.00 | 0.01 | 0.00 | 93 | 1008.5 |
| 20260830121516 | 67 | 90 | 2.0 | 3.0 | 0.00 | 0.01 | 0.00 | 93 | 1008.5 |
| 20260830120516 | 67 | 90 | 1.0 | 2.0 | 0.00 | 0.01 | 0.00 | 93 | 1008.5 |
| 20260830115536 | 67 | 90 | 1.0 | 3.0 | 0.00 | 0.01 | 0.00 | 93 | 1008.4 |
| 20260830114516 | 67 | 90 | 1.0 | 3.0 | 0.00 | 0.01 | 0.00 | 93 | 1008.3 |
| 20260830113516 | 67 | 90 | 1.0 | 2.0 | 0.00 | 0.01 | 0.00 | 93 | 1008.5 |
| 20260830112516 | 67 | 113 | 2.0 | 2.0 | 0.00 | 0.01 | 0.00 | 93 | 1008.3 |
| 20260830111516 | 66 | 113 | 2.0 | 3.0 | 0.00 | 0.01 | 0.00 | 93 | 1008.2 |
| 20260830110516 | 66 | 113 | 1.0 | 3.0 | 0.00 | 0.08 | 0.00 | 92 | 1008.2 |
| 20260830105516 | 66 | 0.0 | 1.0 | 0.00 | 0.10 | 0.00 | 92 | 1008.3 | |
| 20260830104516 | 67 | 0.0 | 1.0 | 0.00 | 0.14 | 0.00 | 92 | 1008.3 | |
| 20260830103516 | 67 | 0.0 | 2.0 | 0.00 | 0.15 | 0.00 | 92 | 1008.6 | |
| 20260830102516 | 67 | 0 | 2.0 | 5.0 | 0.00 | 0.16 | 0.00 | 93 | 1008.6 |
| 20260830101556 | 66 | 0.0 | 1.0 | 0.00 | 0.17 | 0.00 | 92 | 1008.7 | |
| 20260830100516 | 66 | 0 | 1.0 | 2.0 | 0.00 | 0.18 | 0.00 | 92 | 1008.9 |
| 20260830095536 | 67 | 0.0 | 2.0 | 0.00 | 0.20 | 0.00 | 92 | 1009.0 | |
| 20260830094516 | 67 | 0.0 | 2.0 | 0.00 | 0.20 | 0.00 | 92 | 1008.8 | |
| 20260830093516 | 67 | 0.0 | 2.0 | 0.00 | 0.22 | 0.00 | 92 | 1008.9 | |
| 20260830092516 | 67 | 135 | 1.0 | 2.0 | 0.00 | 0.22 | 0.00 | 92 | 1008.7 |
| 20260830091516 | 67 | 0.0 | 2.0 | 0.00 | 0.23 | 0.00 | 92 | 1008.7 | |
| 20260830090516 | 67 | 0.0 | 2.0 | 0.00 | 0.23 | 0.00 | 91 | 1008.4 | |
| 20260830085516 | 67 | 0 | 1.0 | 2.0 | 0.00 | 0.25 | 0.00 | 91 | 1008.5 |
| 20260830084516 | 68 | 0 | 1.0 | 2.0 | 0.00 | 0.27 | 0.00 | 91 | 1008.6 |
| 20260830083516 | 68 | 0 | 1.0 | 2.0 | 0.00 | 0.30 | 0.00 | 91 | 1008.7 |
| 20260830082516 | 68 | 0.0 | 1.0 | 0.00 | 0.32 | 0.00 | 91 | 1008.8 | |
| 20260830081516 | 68 | 0 | 1.0 | 1.0 | 0.00 | 0.34 | 0.00 | 91 | 1008.8 |
| 20260830080536 | 68 | 0.0 | 2.0 | 0.00 | 0.35 | 0.00 | 91 | 1008.9 | |
| 20260830075556 | 68 | 0.0 | 2.0 | 0.00 | 0.35 | 0.00 | 91 | 1008.7 | |
| 20260830074516 | 68 | 0 | 1.0 | 2.0 | 0.00 | 0.35 | 0.00 | 91 | 1008.8 |
| 20260830073516 | 68 | 0.0 | 2.0 | 0.00 | 0.35 | 0.00 | 90 | 1009.0 | |
| 20260830072516 | 69 | 0.0 | 2.0 | 0.00 | 0.35 | 0.00 | 90 | 1009.0 | |
| 20260830071516 | 69 | 0.0 | 2.0 | 0.00 | 0.35 | 0.00 | 90 | 1009.1 | |
| 20260830070536 | 69 | 0.0 | 2.0 | 0.00 | 0.35 | 0.00 | 90 | 1009.2 | |
| 20260830065516 | 69 | 0 | 1.0 | 2.0 | 0.00 | 0.35 | 0.00 | 90 | 1009.2 |
| 20260830064516 | 69 | 0 | 2.0 | 4.0 | 0.00 | 0.35 | 0.00 | 90 | 1009.1 |